Location: Gorze? G�rny
(49.8500°N, 19.5000°E)
Time: 13:08:27
(UTC+00:00)

MOS 1-B Rocket - Pass Details

Date: 13 May 2021
Orbit: 890 x 1606 km, 99.0° (Epoch: 22 June)

Event Time Altitude Azimuth Distance (km) Brightness Sun altitude
Rises 18:45:20 0° 15° (NNE) 4,375 7.7 -4.5°
Reaches altitude 10° 18:48:15 10° 15° (NNE) 3,299 7.1 -4.8°
Maximum altitude 18:55:46 88° 106° (ESE) 1,141 4.4 -5.8°
Drops below altitude 10° 19:02:06 10° 196° (SSW) 2,799 6.2 -6.6°
Sets 19:04:24 0° 197° (SSW) 3,677 6.8 -6.9°
